Regional Weather Roundup
Issued by NWS San Diego, CA

Home | Current Version | Previous Version | Text Only | Print | Product List | Glossary On
Versions: 1 2 3 4 5 6 7 8 9 10 11 12 13 14 15 16 17 18 19 20 21 22 23 24 25 26 27 28 29 30 31 32 33 34 35 36 37 38 39 40 41 42 43 44 45 46 47 48 49 50
000
ASUS46 KSGX 031411
RWRSGX

SAN DIEGO HOURLY WEATHER ROUNDUP
NATIONAL WEATHER SERVICE SAN DIEGO CA
700 AM PDT TUE MAY 03 2016

NOTE: "FAIR" INDICATES FEW OR NO CLOUDS BELOW 12,000 FEET WITH NO
SIGNIFICANT WEATHER AND/OR OBSTRUCTIONS TO VISIBILITY.

CAZ042-043-060-061-PZZ750-775-031500-

GREATER SAN DIEGO AREA

CITY           SKY/WX    TMP DP  RH WIND       PRES   REMARKS
LINDBERGH FLD  MOSUNNY   60  54  80 NW5       29.98R
POINT LOMA       N/A     58  55  90 N6          N/A
NATIONAL CITY    N/A     59  56  90 CALM      29.98R
CHULA VISTA      N/A     56  54  93 CALM      29.89R
IMPERIAL BEACH PTSUNNY   63  56  78 N5        29.97R
BROWN FIELD    CLOUDY    56  55  97 CALM      29.96R
MIRAMAR MCAS   CLOUDY    59  54  83 NW5       29.96S
MONTGOMERY FLD CLOUDY    58  54  86 N5        29.96S FOG

$$

NORTH SAN DIEGO COUNTY

CITY           SKY/WX    TMP DP  RH WIND       PRES   REMARKS
CAMP PENDLETON CLOUDY    53  51  93 NE5       29.97S
OCEANSIDE AP   CLOUDY    57  52  83 NE3       29.96S HAZE
OCEANSIDE HBR    N/A     57  55  92 NE5       29.99S
VISTA            N/A     54  49  83 CALM      29.95R
CARLSBAD       CLOUDY    58  55  90 CALM      29.95S FOG
DEL MAR          N/A     58  56  94 CALM      29.99S
LA JOLLA SCRIP   N/A     58  56  92 W3        29.96S
FALLBROOK        N/A     53  53 100 CALM      29.95S
SAN MARCOS       N/A     53  47  78 CALM      29.94S
POWAY            N/A     54  51  90 CALM      29.97F

$$

EAST SAN DIEGO COUNTY

CITY           SKY/WX    TMP DP  RH WIND       PRES   REMARKS
RAMONA         MOSUNNY   48  46  93 CALM      29.97S FOG
SANTEE LAKES     N/A     54  52  93 CALM      29.95S
LA MESA          N/A     55  53  93 CALM      29.89S
JAMUL            N/A     52  50  93 CALM      29.96R
DESCANSO N       N/A     64  39  41 E8        29.85R
MT. LAGUNA OBS   N/A     50  30  46 N7        29.69
CAMPO            N/A     46  39  76 NE6       29.97R

$$

ORANGE COUNTY AND THE LOS ANGELES BASIN

CITY           SKY/WX    TMP DP  RH WIND       PRES   REMARKS
JOHN WAYNE AP  PTSUNNY   59  55  87 CALM      29.97R
LAKE FOREST FR   N/A     54  49  83 CALM      29.86R
HUNTINGTON BCH   N/A     57  56  97 CALM      29.99R
LOS ALAMITOS   FAIR      58  55  92 E3        29.97R FOG
FULLERTON      CLOUDY    60  55  83 SE3       29.97R
LONG BEACH     SUNNY     58  55  90 CALM      29.97R
L.A. AP        MOSUNNY   59  56  89 SW3       29.97R
L.A. DOWNTOWN  SUNNY     59  55  87 CALM      29.97R

$$

THE INLAND EMPIRE

CITY           SKY/WX    TMP DP  RH WIND       PRES   REMARKS
CORONA         SUNNY     54  51  90 CALM      29.98
CHINO          SUNNY     56  52  86 E3        29.98R
ONTARIO        MOSUNNY   60  51  72 NE5       29.97R
SAN BERNARDINO SUNNY     57  50  77 CALM      29.98
RIVERSIDE AP   SUNNY     59  50  72 NE3       29.97R
MORENO VALLEY    N/A     57  49  75 CALM      28.11R
MARCH ARB      SUNNY     55  49  81 CALM      29.98R
HORSETHIEF CYN   N/A     58  46  65 CALM      29.98S
PERRIS           N/A     53  50  88 CALM      29.98R
HEMET EAST       N/A     59  36  41 CALM      29.85S
FRENCH VALLEY  FAIR      55  48  76 CALM      29.98S
TEMECULA         N/A     53  51  94 CALM      29.95S

$$

SAN BERNARDINO AND RIVERSIDE COUNTY MOUNTAINS

CITY           SKY/WX    TMP DP  RH WIND       PRES   REMARKS
BIG BEAR AP    SUNNY     32  30  93 CALM      30.20S
ANGELUS OAKS     N/A     46  33  62 CALM      29.96R
PINE COVE        N/A     49  34  57 CALM      29.97R

$$

SOUTHERN DESERT INCLUDING THE COACHELLA VALLEY

CITY           SKY/WX    TMP DP  RH WIND       PRES   REMARKS
PALM SPRINGS   SUNNY     70  42  36 NW7       29.95R
THOUSAND PALMS   N/A     69  38  32 SW3       29.91R
PALM DESERT      N/A     68  46  44 CALM        N/A
THERMAL        SUNNY     64  45  49 N5        29.89R
BLYTHE         SUNNY     69  37  30 W3        29.93R
IMPERIAL AP    SUNNY     66  45  46 W5        29.89R
EL CENTRO NAS  SUNNY     68  37  32 SW5       29.91R
YUMA AZ        SUNNY     75  39  27 NE6       29.89R
MEXICALI       SUNNY     66  41  39 CALM      29.90

$$

UPPER DESERT

CITY           SKY/WX    TMP DP  RH WIND       PRES   REMARKS
VICTORVILLE AP SUNNY     52  36  54 CALM      30.06R
HESPERIA         N/A     52  38  58 W2        30.11R
PALMDALE       SUNNY     54  41  61 S5        30.05R
LANCASTER      SUNNY     51  36  56 CALM      30.05R
EDWARDS AFB    MOSUNNY   53  30  41 SE1       30.03R
DAGGETT        SUNNY     58  35  42 W6        30.03R
29 PALMS N     MOSUNNY   56  31  38 CALM      30.10R
NEEDLES        SUNNY     73  40  30 N6        29.98R

$$

REGIONAL REPORTS

CITY           SKY/WX    TMP DP  RH WIND       PRES   REMARKS
SANTA BARBARA  CLEAR     53  51  93 CALM      29.95S
SANDBERG       SUNNY     61  33  35 E14       30.11R
LAS VEGAS NV   SUNNY     65  39  38 CALM      30.05R
PHOENIX AZ     SUNNY     69  43  38 SW5       29.93R
TIJUANA        MOSUNNY   55  50  82 CALM      29.98R FOG
ENSENADA NW      N/A     59  32  36 NE7       29.94R

$$

OFFSHORE ISLANDS

CITY           SKY/WX    TMP DP  RH WIND       PRES   REMARKS
CATALINA ARPT  SUNNY     61  45  55 CALM      29.99R
SAN NICOLAS IS PTCLDY    54  51  90 CALM      29.97R

$$

MARINE AND OFFSHORE BUOY REPORTS

STATION/POSITION SKY/WX   TEMP    WIND        PRES    SWELL
                          AIR SEA DIR/SP/G            HT/PER/DIR
                          (F)     (DEG/KT/KT) (MB)    (FT/S/D)
TANNER BANKS               58 60  280/ 12/ 14 1014.7    5/280/15
S CLEMENTE BASIN           58 61  300/ 10/ 12 1014.3    5/230/13
SAN NICOLAS IS.               59                N/A     5/240/14
SO. S. ROSA ISLA           54 56  300/ 10/ 12 1014.4    7/240/14
W. S. BARBARA CH           56 57  330/  4/  6 1013.3    7/290/14
M. S. BARBARA CH           55 56  240/  6/ 10 1014.8R
S. MONICA BASIN            58 61  340/  4/  6 1014.3    3/180/15
S PEDRO CHANNEL               61                N/A     2/160/14
OCEANSIDE OFFSHR              64                N/A     3/200/13
TORREY PINES OTR              64                N/A     3/200/14
LA JOLLA 1                 60 65   30/  5/  7 1014.3R
SAN DIEGO BAY                 67              1014.6S
POINT LOMA SOUTH              63                N/A     3/200/13

$$




USA.gov is the U.S. government's official web portal to all federal, state and local government web resources and services.